Home > Weather > Gloucester > Past weeks

Flag for USA Past Weather in Gloucester, Massachusetts, USA — Yesterday and Last 2 Weeks

Now
57 °F

Fog.


Feels Like: 54 °F
Forecast: 56 / 60 °F
Wind: 12 mph from North

Location: Beverly Municipal Airport

Current Time: May 29, 2016 at 5:47:47 AM

Latest Report: May 29, 2016 at 4:53 AM


Visibility: 6 mi

Pressure: 30.13 "Hg

Humidity: 87%

Dew Point: 53 °F

Location of GloucesterLocation

Past Weather in Gloucester — Graph

°F

Gloucester Temperature Yesterday

Maximum temperature yesterday: 90 °F (at 1:53 PM)
Minimum temperature yesterday: 66 °F (at 3:53 AM)
Average temperature yesterday: 76 °F

High & Low Weather Summary for the Past Weeks

 TemperatureHumidityPressure
High90 °F (May 28, 1:53 PM)96% (May 24, 9:03 PM)30.19 "Hg (May 24, 9:03 PM)
Low40 °F (May 16, 5:53 AM)26% (May 17, 2:53 PM)29.47 "Hg (May 15, 3:53 AM)
Average60 °F62%29.95 "Hg
* Reported May 14 3:53 AM — May 29 3:53 AM, Gloucester, Weather by CustomWeather, © 2016

Note: Actual official high and low records may vary slightly from our data, if they occured in-between our weather recording intervals... More about our weather records

Advertising

Gloucester Weather History for the Previous 24 Hours

Scroll right to see more
 ConditionsComfort  
Time TempWeatherWind HumidityBarometerVisibility
3:53 AM
Sun, May 29
59 °FFog.15 mph87%30.12 "Hg6 mi
3:04 AM60 °FPassing clouds.13 mph86%30.13 "Hg7 mi
1:53 AM62 °FClear.8 mph83%30.09 "Hg8 mi
12:53 AM64 °FClear.7 mph81%30.08 "Hg9 mi
11:53 PM
Sat, May 28
70 °FPassing clouds.8 mph81%30.07 "Hg9 mi
10:53 PM74 °FPassing clouds.No wind71%30.05 "Hg9 mi
9:53 PM71 °FClear.No wind73%30.04 "Hg8 mi
8:53 PM71 °FSunny.No wind73%30.03 "Hg9 mi
7:53 PM75 °FSunny.6 mph69%30.02 "Hg9 mi
6:53 PM80 °FSunny.No wind58%30.01 "Hg10 mi
5:53 PM82 °FScattered clouds.5 mph56%30.01 "Hg10 mi
4:53 PM82 °FScattered clouds.8 mph56%30.00 "Hg10 mi
3:53 PM81 °FPassing clouds.7 mph58%30.01 "Hg10 mi
2:53 PM81 °FPassing clouds.15 mph60%30.01 "Hg10 mi
1:53 PM90 °FSunny.N/A38%30.01 "Hg10 mi
12:53 PM89 °FSunny.8 mph41%30.03 "Hg10 mi
11:53 AM87 °FSunny.5 mph46%30.04 "Hg10 mi
10:53 AM84 °FSunny.5 mph59%30.04 "Hg10 mi
9:53 AM79 °FPassing clouds.6 mph65%30.04 "Hg10 mi
8:53 AM77 °FPassing clouds.6 mph66%30.05 "Hg10 mi
7:53 AM73 °FPassing clouds.7 mph71%30.04 "Hg10 mi
6:53 AM68 °FPartly sunny.6 mph76%30.03 "Hg10 mi
5:53 AM66 °FPassing clouds.6 mph78%30.01 "Hg10 mi
Weather by CustomWeather, © 2016

See weather overviewHow to use our weather pages